Miscellaneous Local Product
Issued by NWS Hastings, NE

Home | Current Version | Previous Version | Text Only | Print | Product List | Glossary On
Versions: 1 2 3 4 5 6 7 8 9 10 11 12 13 14 15 16 17 18 19 20 21 22 23 24 25 26 27 28 29 30 31 32 33 34 35 36 37 38 39 40 41 42 43 44 45 46 47 48 49 50
359
AXUS43 KGID 190102
MISGRI

GID CWA HOURLY WEATHER ROUNDUP
NATIONAL WEATHER SERVICE HASTINGS NE
800 PM CDT FRI AUG 18 2017

NOTE: "FAIR" INDICATES FEW OR NO CLOUDS BELOW 12,000 FEET WITH NO
SIGNIFICANT WEATHER AND/OR OBSTRUCTIONS TO VISIBILITY.

...SOUTH CENTRAL NEBRASKA...

CITY           SKY/WX    TMP DP  RH WIND       PRES   REMARKS
GRAND ISLAND   CLEAR     80  65  59 S8        29.95R
HASTINGS       CLEAR     81  63  54 S5        29.97R
KEARNEY        CLEAR     77  68  73 S7        29.97R
ORD            CLEAR     77  57  50 N6        29.96R
YORK           CLEAR     75  70  83 CALM      29.93S
AURORA         CLEAR     78  67  69 S5        29.94R
LEXINGTON      CLEAR     80  67  62 S5        29.97S
HOLDREGE       CLEAR     78  64  60 S5        29.98S
HEBRON         CLEAR     79  68  69 CALM      29.93S

...NEBRASKA PANHANDLE...

CITY           SKY/WX    TMP DP  RH WIND       PRES   REMARKS
CHADRON        CLEAR     80  54  40 E7        29.97S
ALLIANCE       CLEAR     78  57  48 S6        30.02F
SCOTTSBLUFF    CLEAR     82  48  30 SE9       30.03F
SIDNEY         CLEAR     82  44  26 S8        30.08F

...WESTERN AND NORTH CENTRAL NEBRASKA...

CITY           SKY/WX    TMP DP  RH WIND       PRES   REMARKS
VALENTINE      CLEAR     79  53  40 E9        29.99S
AINSWORTH      CLEAR     73  62  67 E3        30.01S
ONEILL         CLEAR     74  64  69 N5        29.98S
BROKEN BOW     CLEAR     81  60  48 NE7       29.98R
IMPERIAL       CLEAR     83  48  29 SE3       30.04S
NORTH PLATTE   CLEAR     81  65  58 CALM      29.99S
MCCOOK         CLEAR     83  56  39 S3        30.00R

...EASTERN NEBRASKA...

CITY           SKY/WX    TMP DP  RH WIND       PRES   REMARKS
NORFOLK        CLEAR     76  64  66 NW7       29.92R
SO SIOUX CITY  PTCLDY    79  68  69 NW8       29.88S
TEKAMAH        CLEAR     77  72  84 S3        29.88S
COLUMBUS       CLEAR     80  67  64 SW3       29.93R
ALBION         CLEAR     79  64  59 N5        29.96R
OMAHA EPPLEY   PTCLDY    83  64  52 W5        29.89R
OFFUTT AFB     CLEAR     82  65  56 W6        29.89R
MILLARD        CLEAR     83  67  58 CALM      29.90S
LINCOLN        CLEAR     82  66  58 W5        29.92S
NEBRASKA CITY  CLEAR     79  70  75 CALM      29.91R
BEATRICE       CLEAR     82  69  65 CALM      29.92S
FALLS CITY     CLEAR     81  66  60 CALM      29.90R

...NORTHERN KANSAS...

CITY           SKY/WX    TMP DP  RH WIND       PRES   REMARKS
GOODLAND       CLEAR     78  57  48 E8        30.07S
HILL CITY      CLEAR     84  61  45 NE3       29.99S
NORTON         CLEAR     79  55  44 E3        29.99
PHILLIPSBURG   CLEAR     82  63  51 CALM      29.97S
SMITH CENTER   MOCLDY    77  66  69 CALM      29.97R
HAYS           CLEAR     83  66  56 NE7       29.97
RUSSELL        CLEAR     85  63  47 N7        29.94S
CONCORDIA      CLEAR     81  68  64 CALM      29.94R
SALINA         CLEAR     90  65  43 N5        29.92R HX  92
TOPEKA         CLEAR     85  68  56 SW5       29.90R



USA.gov is the U.S. government's official web portal to all federal, state and local government web resources and services.